Weather History for Waterville, ME

Change the Weather History Date:

Tuesday, January 8, 2013

  Actual Average Record
Temperature  
Mean Temperature 20 °F -  
Max Temperature 35 °F 29 °F 59 °F (2008)
Min Temperature 6 °F 9 °F -14 °F (1968)
Degree Days  
Heating Degree Days 44    
Moisture  
Dew Point 16 °F    
Average Humidity 79    
Maximum Humidity 100    
Minimum Humidity 52    
Precipitation  
Precipitation 0.00 in - - ()
Sea Level Pressure  
Sea Level Pressure 30.21 in    
Wind  
Wind Speed 3 mph (SW)    
Max Wind Speed 10 mph    
Max Gust Speed -    
Visibility 10 miles    
Events      
Averages and records for this station are not official NWS values.
T = Trace of Precipitation, MM = Missing Value Source: NWS Daily Summary

Daily Weather History Graph

Daily Weather History Graph

Search for Another Location

Airport:

Trip Planner

Search our weather history database for the weather conditions in past years. The results will help you decide how hot, cold, wet, or windy it might be!

Date:

Astronomy

Jan. 08, 2013 Rise Set
Actual Time 7:14 AM EST 4:16 PM EST
Civil Twilight 6:41 AM EST 4:49 PM EST
Nautical Twilight 6:05 AM EST 5:26 PM EST
Astronomical Twilight 5:30 AM EST 6:01 PM EST
Moon 3:43 AM EST (1/8) 1:16 PM EST (1/8)
Length of Visible Light 10h 08m
Length of Day
9h 02m
Waning Crescent, 14% of the Moon is Illuminated
Jan 8
Waning Crescent
Jan 11
New
Jan 18
First Quarter
Jan 26
Full
Feb 3
Last Quarter

Hourly Weather History & Observations

Time (EST) Temp. Windchill Dew Point Humidity Pressure Visibility Wind Dir Wind Speed Gust Speed Precip Events Conditions
12:15 AM 6.8 °F - 5.0 °F 92% 30.27 in 10.0 mi Calm Calm - N/A   Clear
12:35 AM 8.6 °F - 8.6 °F 100% 30.26 in 10.0 mi Calm Calm - N/A   Clear
12:55 AM 6.8 °F - 5.0 °F 92% 30.25 in 10.0 mi Calm Calm - N/A   Clear
1:15 AM 6.8 °F - 5.0 °F 92% 30.24 in 10.0 mi Calm Calm - N/A   Clear
1:55 AM 6.8 °F - 5.0 °F 92% 30.23 in 10.0 mi Calm Calm - N/A   Clear
2:15 AM 8.6 °F - 5.0 °F 85% 30.23 in 10.0 mi Calm Calm - N/A   Clear
2:35 AM 10.4 °F -0.4 °F 8.6 °F 92% 30.22 in 10.0 mi SSW 6.9 mph - N/A   Clear
2:55 AM 10.4 °F -0.4 °F 8.6 °F 92% 30.20 in 10.0 mi SSW 6.9 mph - N/A   Clear
3:15 AM 12.2 °F 2.9 °F 8.6 °F 85% 30.19 in 10.0 mi SSW 5.8 mph - N/A   Clear
3:35 AM 14.0 °F 3.9 °F 10.4 °F 86% 30.18 in 10.0 mi South 6.9 mph - N/A   Clear
3:55 AM 14.0 °F 8.2 °F 10.4 °F 86% 30.18 in 10.0 mi SSW 3.5 mph - N/A   Clear
4:15 AM 12.2 °F 4.3 °F 8.6 °F 85% 30.17 in 10.0 mi South 4.6 mph - N/A   Clear
4:35 AM 15.8 °F 5.1 °F 15.8 °F 100% 30.15 in 10.0 mi SSW 8.1 mph - N/A   Clear
4:55 AM 17.6 °F 9.3 °F 14.0 °F 86% 30.16 in 10.0 mi SSW 5.8 mph - N/A   Clear
5:15 AM 19.4 °F 10.4 °F 15.8 °F 86% 30.15 in 10.0 mi SSW 6.9 mph - N/A   Clear
5:55 AM 21.2 °F 14.9 °F 19.4 °F 93% 30.15 in 10.0 mi SSW 4.6 mph - N/A   Clear
6:15 AM 21.2 °F 14.9 °F 19.4 °F 93% 30.15 in 10.0 mi SW 4.6 mph - N/A   Clear
6:35 AM 21.2 °F 16.4 °F 19.4 °F 93% 30.16 in 10.0 mi SSW 3.5 mph - N/A   Clear
6:55 AM 17.6 °F 10.7 °F 15.8 °F 93% 30.16 in 10.0 mi SSW 4.6 mph - N/A   Clear
7:15 AM 21.2 °F 13.6 °F 17.6 °F 86% 30.16 in 10.0 mi SSW 5.8 mph - N/A   Clear
7:35 AM 21.2 °F 13.6 °F 17.6 °F 86% 30.16 in 10.0 mi SSW 5.8 mph - N/A   Clear
7:55 AM 21.2 °F - 17.6 °F 86% 30.17 in 10.0 mi Calm Calm - N/A   Clear
8:15 AM 21.2 °F - 17.6 °F 86% 30.17 in 10.0 mi Calm Calm - N/A   Clear
8:35 AM 21.2 °F - 17.6 °F 86% 30.18 in 10.0 mi Calm Calm - N/A   Clear
8:55 AM 24.8 °F 17.9 °F 19.4 °F 80% 30.18 in 10.0 mi WSW 5.8 mph - N/A   Clear
9:15 AM 23.0 °F - 17.6 °F 80% 30.19 in 10.0 mi Calm Calm - N/A   Clear
9:35 AM 23.0 °F 17.0 °F 17.6 °F 80% 30.18 in 10.0 mi SW 4.6 mph - N/A   Clear
9:55 AM 24.8 °F 16.9 °F 17.6 °F 74% 30.18 in 10.0 mi SW 6.9 mph - N/A   Clear
10:15 AM 26.6 °F 19.1 °F 19.4 °F 74% 30.18 in 10.0 mi SW 6.9 mph - N/A   Clear
10:35 AM 28.4 °F 21.2 °F 19.4 °F 69% 30.16 in 10.0 mi SSW 6.9 mph - N/A   Clear
10:55 AM 28.4 °F 19.7 °F 19.4 °F 69% 30.16 in 5.0 mi SW 9.2 mph - N/A   Clear
11:15 AM 30.2 °F 23.4 °F 19.4 °F 64% 30.16 in 10.0 mi WSW 6.9 mph - N/A   Clear
11:55 AM 30.2 °F 21.9 °F 19.4 °F 64% 30.15 in 10.0 mi SW 9.2 mph - N/A   Clear
12:15 PM 30.2 °F 23.4 °F 19.4 °F 64% 30.14 in 10.0 mi SW 6.9 mph - N/A   Clear
12:55 PM 32.0 °F 24.8 °F 19.4 °F 60% 30.14 in 10.0 mi SSW 8.1 mph - N/A   Clear
1:15 PM 33.8 °F 25.8 °F 19.4 °F 56% 30.14 in 10.0 mi SSW 10.4 mph - N/A   Clear
1:35 PM 33.8 °F 26.4 °F 19.4 °F 56% 30.14 in 10.0 mi SSW 9.2 mph - N/A   Clear
1:55 PM 35.6 °F 29.2 °F 19.4 °F 52% 30.15 in 10.0 mi SW 8.1 mph - N/A   Clear
2:15 PM 35.6 °F 29.9 °F 19.4 °F 52% 30.15 in 10.0 mi SSW 6.9 mph - N/A   Clear
5:35 PM 33.8 °F 27.0 °F 19.4 °F 56% 30.22 in 10.0 mi NNW 8.1 mph - N/A   Clear
5:55 PM 33.8 °F 29.6 °F 19.4 °F 56% 30.23 in 10.0 mi West 4.6 mph - N/A   Clear
6:15 PM 30.2 °F - 17.6 °F 60% 30.24 in 10.0 mi Calm Calm - N/A   Clear
6:35 PM 26.6 °F 22.6 °F 17.6 °F 69% 30.25 in 10.0 mi WNW 3.5 mph - N/A   Clear
6:55 PM 32.0 °F 27.5 °F 19.4 °F 60% 30.25 in 10.0 mi West 4.6 mph - N/A   Clear
7:15 PM 32.0 °F 26.4 °F 19.4 °F 60% 30.26 in 10.0 mi WSW 5.8 mph - N/A   Clear
7:35 PM 24.8 °F - 14.0 °F 64% 30.26 in 10.0 mi Calm Calm - N/A   Clear
7:55 PM 28.4 °F - 19.4 °F 69% 30.26 in 10.0 mi Calm Calm - N/A   Clear
8:15 PM 24.8 °F - 19.4 °F 80% 30.27 in 10.0 mi Calm Calm - N/A   Clear
8:55 PM 24.8 °F - 19.4 °F 80% 30.28 in 10.0 mi Calm Calm - N/A   Clear
9:15 PM 24.8 °F - 19.4 °F 80% 30.28 in 10.0 mi Calm Calm - N/A   Clear
9:35 PM 26.6 °F - 19.4 °F 74% 30.29 in 10.0 mi Calm Calm - N/A   Clear
9:55 PM 21.2 °F - 19.4 °F 93% 30.30 in 10.0 mi Calm Calm - N/A   Clear
10:15 PM 21.2 °F - 17.6 °F 86% 30.30 in 10.0 mi Calm Calm - N/A   Clear
10:35 PM 23.0 °F - 19.4 °F 86% 30.30 in 10.0 mi Calm Calm - N/A   Clear
10:55 PM 23.0 °F 17.0 °F 19.4 °F 86% 30.30 in 10.0 mi SW 4.6 mph - N/A   Clear
11:15 PM 19.4 °F - 15.8 °F 86% 30.30 in 10.0 mi Calm Calm - N/A   Clear
11:35 PM 21.2 °F 14.9 °F 17.6 °F 86% 30.30 in 10.0 mi West 4.6 mph - N/A   Clear